Weather History for KHJO - November, 2011

Change the Weather History Date:

Monday, November 21, 2011

  Actual Average Record
Temperature  
Mean Temperature 45 °F 50 °F  
Max Temperature 54 °F 62 °F 77 °F (2002)
Min Temperature 36 °F 38 °F 33 °F (2005)
Degree Days  
Heating Degree Days 20    
Month to date heating degree days 286  
Since 1 July heating degree days 354  
Cooling Degree Days 0    
Month to date cooling degree days 0  
Year to date cooling degree days 1664  
Moisture  
Dew Point 40 °F    
Average Humidity 84    
Maximum Humidity 96    
Minimum Humidity 71    
Precipitation  
Precipitation 0.00 in 0.03 in 0.21 in (2010)
Month to date precipitation 0.71 0.81  
Year to date precipitation 7.41 8.28  
Since 1 July precipitation 1.23 1.52  
Snow  
Snow 0.00 in - - ()
Month to date snowfall 0.0  
Since 1 July snowfall 0.0  
Since 1 September snowfall 0.0  
Snow Depth 0.00 in    
Sea Level Pressure  
Sea Level Pressure 30.22 in    
Wind  
Wind Speed 1 mph (NE)    
Max Wind Speed 7 mph    
Max Gust Speed -    
Visibility 2 miles    
Events Fog    
T = Trace of Precipitation, MM = Missing Value Source: NWS Daily Summary

Daily Weather History Graph

Daily Weather History Graph

Search for Another Location

Airport or City:

Trip Planner

Search our weather history database for the weather conditions in past years. The results will help you decide how hot, cold, wet, or windy it might be!

Date:

Astronomy

Nov. 21, 2011 Rise Set
Actual Time 6:41 AM PST 4:46 PM PST
Civil Twilight 6:13 AM PST 5:14 PM PST
Nautical Twilight 5:42 AM PST 5:45 PM PST
Astronomical Twilight 5:11 AM PST 6:16 PM PST
Moon 2:31 AM PST (11/21) 2:07 PM PST (11/21)
Length of Visible Light 11h 00m
Length of Day
10h 05m
Waning Crescent, 16% of the Moon is Illuminated
Nov 21
Waning Crescent
Nov 24
New
Dec 2
First Quarter
Dec 10
Full
Dec 17
Last Quarter

Hourly Weather History & Observations

Time (PST) Temp. Windchill Dew Point Humidity Pressure Visibility Wind Dir Wind Speed Gust Speed Precip Events Conditions
12:53 AM 39.0 °F 35.7 °F 37.0 °F 93% 30.06 in 0.2 mi ENE 4.6 mph - N/A Fog Fog
1:06 AM 39.2 °F - 37.4 °F 93% 30.05 in 0.5 mi Calm Calm - N/A Fog Fog
1:13 AM 39.2 °F - 37.4 °F 93% 30.05 in 0.2 mi Calm Calm - N/A Fog Fog
1:53 AM 39.9 °F 36.7 °F 37.9 °F 93% 30.06 in 0.2 mi East 4.6 mph - N/A Fog Fog
2:34 AM 37.4 °F - 37.4 °F 100% 30.07 in 0.5 mi Calm Calm - N/A Fog Fog
2:48 AM 39.2 °F - 35.6 °F 87% 30.08 in 0.2 mi Calm Calm - N/A Fog Fog
2:53 AM 39.0 °F - 37.0 °F 93% 30.09 in 0.2 mi Calm Calm - N/A Fog Fog
3:53 AM 41.0 °F - 39.9 °F 96% 30.11 in 0.2 mi Calm Calm - N/A Fog Fog
4:53 AM 41.0 °F - 39.9 °F 96% 30.13 in 0.2 mi Calm Calm - N/A Fog Fog
5:53 AM 41.0 °F 39.0 °F 39.9 °F 96% 30.15 in 0.2 mi North 3.5 mph - N/A Fog Fog
6:53 AM 42.1 °F - 39.9 °F 92% 30.17 in 0.2 mi Calm Calm - 0.01 in Fog Fog
7:53 AM 42.1 °F - 39.9 °F 92% 30.19 in 0.2 mi Calm Calm - N/A Fog Fog
8:53 AM 43.0 °F - 41.0 °F 93% 30.23 in 0.2 mi Calm Calm - N/A Fog Fog
9:53 AM 43.0 °F - 41.0 °F 93% 30.25 in 0.2 mi Calm Calm - N/A Fog Fog
10:20 AM 42.8 °F - 42.8 °F 100% 30.24 in 0.5 mi North - - N/A Fog Fog
10:29 AM 42.8 °F - 42.8 °F 100% 30.24 in 0.2 mi North - - N/A Fog Fog
10:38 AM 42.8 °F - 42.8 °F 100% 30.25 in 0.5 mi North - - N/A Fog Fog
10:53 AM 44.1 °F - 43.0 °F 96% 30.26 in 0.5 mi Calm Calm - N/A Fog Fog
11:09 AM 44.6 °F - 42.8 °F 93% 30.25 in 1.8 mi Calm Calm - N/A   Overcast
11:35 AM 44.6 °F - 42.8 °F 93% 30.25 in 3.0 mi North - - N/A   Overcast
11:53 AM 46.0 °F - 43.0 °F 89% 30.25 in 4.0 mi North - - N/A   Overcast
12:53 PM 48.0 °F - 44.1 °F 86% 30.25 in 5.0 mi Calm Calm - N/A   Overcast
1:17 PM 48.2 °F - 44.6 °F 87% 30.24 in 6.0 mi Calm Calm - N/A   Haze
1:53 PM 50.0 °F - 45.0 °F 83% 30.25 in 6.0 mi Calm Calm - N/A   Haze
2:53 PM 54.0 °F - 45.0 °F 72% 30.24 in 8.0 mi Calm Calm - N/A   Clear
3:53 PM 54.0 °F - 45.0 °F 72% 30.23 in 9.0 mi Calm Calm - N/A   Clear
4:53 PM 50.0 °F - 45.0 °F 83% 30.22 in 7.0 mi Calm Calm - N/A   Clear
5:53 PM 45.0 °F - 42.1 °F 90% 30.25 in 4.0 mi Calm Calm - N/A   Clear
6:19 PM 42.8 °F - 39.2 °F 87% 30.25 in 1.8 mi Calm Calm - N/A   Clear
6:28 PM 42.8 °F - 39.2 °F 87% 30.25 in 0.2 mi Calm Calm - N/A Fog Fog
6:44 PM 42.8 °F - 39.2 °F 87% 30.26 in 1.0 mi Calm Calm - N/A   Clear
6:53 PM 44.1 °F - 41.0 °F 89% 30.27 in 2.0 mi Calm Calm - N/A   Clear
7:01 PM 44.6 °F 43.1 °F 41.0 °F 87% 30.27 in 4.0 mi NW 3.5 mph - N/A   Clear
7:26 PM 42.8 °F - 39.2 °F 87% 30.27 in 1.8 mi Calm Calm - N/A   Clear
7:42 PM 41.0 °F - 39.2 °F 93% 30.27 in 0.2 mi Calm Calm - N/A Fog Fog
7:53 PM 41.0 °F - 39.0 °F 93% 30.28 in 0.5 mi Calm Calm - N/A Fog Fog
8:01 PM 37.4 °F - 37.4 °F 100% 30.27 in 0.2 mi Calm Calm - N/A Fog Fog
8:29 PM 37.4 °F - 35.6 °F 93% 30.27 in 0.2 mi Calm Calm - N/A Fog Fog
8:38 PM 39.2 °F - 35.6 °F 87% 30.27 in 0.2 mi Calm Calm - N/A Fog Fog
8:53 PM 39.0 °F - 37.0 °F 93% 30.29 in 0.2 mi Calm Calm - N/A Fog Fog
9:06 PM 39.2 °F - 37.4 °F 93% 30.29 in 1.0 mi Calm Calm - N/A   Mist
9:25 PM 39.2 °F - 37.4 °F 93% 30.30 in 0.8 mi Calm Calm - N/A   Mist
9:49 PM 37.4 °F 34.9 °F 35.6 °F 93% 30.30 in 0.2 mi NE 3.5 mph - N/A Fog Fog
9:53 PM 37.0 °F 31.6 °F 35.1 °F 93% 30.32 in 0.2 mi ENE 6.9 mph - N/A Fog Fog
10:53 PM 37.9 °F 34.4 °F 36.0 °F 93% 30.31 in 0.2 mi NE 4.6 mph - N/A Fog Fog
11:53 PM 37.0 °F - 35.1 °F 93% 30.31 in 0.2 mi Calm Calm - N/A Fog Fog